Total_Precipitation_Accumulation
-0.00 -0.00 0.00 0.00 0.00 0.00 0.00 0.00 -0.00 -0.00 0.00 0.02 0.03 0.03 0.04 0.02 0.01 0.01 0.00 0.00 0.00 0.00 0.00 0.00 0.00 0.00 0.00 0.00 0.00 0.00 0.00 0.00 0.00 0.00 -0.00 -0.00 -0.01 -0.01 -0.01 -0.02 -0.02 -0.02 -0.02 -0.01 -0.01 -0.01 -0.02 -0.01 -0.01 -0.01 -0.02 -0.05 -0.09 -0.09 -0.16 -0.23 -0.23 -0.30 -0.32 -0.33 -0.33 -0.23 -0.24 -0.27 -0.27 -0.29 -0.37 -0.36 -0.30 -0.30 -0.25 -0.20 -0.24 -0.24 -0.24 -0.30 -0.34 -0.34 -0.30 -0.43 -0.43 -0.36 -0.48 -0.60 -0.60 -0.63
-0.00 -0.00 0.00 0.00 0.00 -0.00 -0.00 -0.00 0.00 0.00 -0.00 0.01 0.01 0.01 0.04 0.04 0.02 0.02 0.02 0.01 0.01 0.00 0.00 0.00 0.00 0.00 0.00 0.00 0.00 0.00 0.00 0.00 0.00 0.00 -0.00 -0.01 -0.01 -0.01 -0.02 -0.02 -0.02 -0.02 -0.02 -0.01 -0.01 -0.00 -0.01 -0.00 -0.00 -0.00 -0.03 -0.06 -0.10 -0.10 -0.17 -0.19 -0.19 -0.21 -0.14 -0.28 -0.28 -0.25 -0.21 -0.24 -0.24 -0.26 -0.34 -0.35 -0.32 -0.32 -0.25 -0.16 -0.16 -0.16 -0.14 -0.23 -0.27 -0.27 -0.20 -0.29 -0.29 -0.29 -0.41 -0.53 -0.53 -0.61
-0.00 -0.00 -0.00 0.00 0.00 -0.00 -0.00 -0.00 0.00 0.00 0.00 0.00 0.00 0.00 0.01 0.03 0.03 0.03 0.02 0.01 0.01 0.00 0.00 0.00 0.00 0.00 0.00 0.00 0.00 0.00 0.00 0.00 0.00 0.00 0.00 -0.00 -0.02 -0.02 -0.02 -0.01 -0.01 -0.01 -0.01 -0.00 -0.00 -0.00 -0.00 -0.00 -0.00 -0.00 -0.05 -0.08 -0.13 -0.13 -0.14 -0.14 -0.14 -0.12 -0.07 -0.17 -0.17 -0.22 -0.25 -0.20 -0.20 -0.24 -0.31 -0.30 -0.30 -0.30 -0.20 -0.12 -0.13 -0.13 -0.11 -0.11 -0.15 -0.15 -0.11 -0.14 -0.14 -0.23 -0.27 -0.38 -0.38 -0.59
-0.00 -0.00 -0.00 -0.00 -0.00 -0.00 -0.00 0.00 0.00 0.00 0.00 0.00 0.00 0.00 0.00 0.01 0.02 0.02 0.01 0.01 0.01 0.01 0.00 0.00 0.00 0.00 0.00 0.00 0.00 0.00 0.00 0.00 0.00 0.00 -0.00 -0.00 -0.01 -0.01 -0.01 -0.01 -0.01 -0.01 -0.01 -0.00 -0.00 -0.00 -0.00 -0.00 -0.00 -0.01 -0.02 -0.05 -0.08 -0.08 -0.08 -0.08 -0.08 -0.07 -0.03 -0.09 -0.09 -0.19 -0.26 -0.21 -0.21 -0.17 -0.19 -0.27 -0.28 -0.28 -0.24 -0.10 -0.10 -0.10 -0.07 -0.07 -0.09 -0.09 -0.06 -0.11 -0.11 -0.21 -0.29 -0.40 -0.40 -0.45
-0.00 -0.01 -0.01 -0.01 -0.01 -0.01 -0.00 0.00 0.00 0.00 0.00 0.00 0.00 0.00 0.00 0.00 0.01 0.01 0.00 0.01 0.01 0.01 0.00 0.00 0.00 0.00 0.00 0.00 0.00 0.00 0.00 0.00 0.00 0.00 -0.00 -0.00 -0.00 -0.00 -0.00 -0.00 -0.00 -0.00 -0.00 -0.00 -0.00 -0.00 -0.00 -0.01 -0.01 -0.02 -0.02 -0.04 -0.04 -0.04 -0.03 -0.04 -0.04 -0.05 -0.04 -0.02 -0.02 -0.19 -0.22 -0.19 -0.19 -0.14 -0.14 -0.22 -0.23 -0.23 -0.23 -0.13 -0.08 -0.08 -0.07 -0.05 -0.05 -0.05 -0.04 -0.04 -0.04 -0.23 -0.28 -0.40 -0.40 -0.47
-0.00 -0.02 -0.02 -0.02 -0.02 -0.01 -0.00 0.00 0.00 0.00 0.00 0.00 0.00 0.00 0.00 0.00 0.00 0.00 0.00 0.00 0.00 0.00 0.00 0.00 0.00 0.00 0.00 0.00 0.00 0.00 0.00 0.00 0.00 0.00 0.00 0.00 0.00 0.00 -0.00 -0.00 -0.00 -0.00 -0.00 -0.01 -0.01 -0.01 -0.01 -0.01 -0.01 -0.01 -0.01 -0.02 -0.02 -0.02 -0.02 -0.03 -0.03 -0.04 -0.04 -0.03 -0.03 -0.02 -0.05 -0.18 -0.18 -0.18 -0.13 -0.18 -0.21 -0.21 -0.20 -0.12 -0.06 -0.06 -0.04 -0.03 -0.03 -0.03 -0.03 -0.04 -0.04 -0.11 -0.23 -0.27 -0.27 -0.33
-0.01 -0.01 -0.01 -0.01 -0.01 -0.00 -0.00 0.00 0.00 0.00 0.01 0.00 0.01 0.01 0.00 0.00 0.00 0.00 0.00 0.00 0.00 0.00 0.00 0.00 0.00 0.00 0.00 0.00 0.00 0.00 0.00 0.00 0.00 0.00 0.00 0.00 0.00 0.00 0.00 0.00 0.00 -0.00 -0.01 -0.01 -0.01 -0.01 -0.01 -0.01 -0.01 -0.01 -0.01 0.00 -0.00 -0.00 0.00 -0.02 -0.02 -0.03 -0.03 -0.02 -0.02 -0.01 -0.02 -0.13 -0.13 -0.16 -0.12 -0.10 -0.14 -0.14 -0.18 -0.15 -0.10 -0.10 -0.05 -0.02 -0.03 -0.03 -0.03 -0.04 -0.04 -0.11 -0.25 -0.26 -0.26 -0.36
-0.04 -0.01 0.01 0.02 0.02 0.02 0.01 0.02 0.01 0.01 0.01 0.02 0.02 0.02 0.01 0.01 0.01 0.01 0.00 0.00 0.00 0.00 0.00 0.00 0.00 0.00 0.00 0.00 0.00 0.00 0.00 0.00 0.00 0.00 0.00 0.00 0.00 0.00 0.00 0.00 0.00 0.00 0.00 0.01 0.01 0.00 0.00 0.01 0.01 0.01 0.01 0.01 0.01 0.01 0.01 0.00 0.00 -0.00 -0.01 -0.01 -0.01 -0.01 -0.01 -0.00 -0.00 -0.02 -0.12 -0.11 -0.08 -0.08 -0.12 -0.08 -0.05 -0.05 -0.01 -0.01 -0.01 -0.01 -0.02 -0.04 -0.04 -0.05 -0.11 -0.24 -0.24 -0.27
-0.03 -0.01 0.02 0.02 0.02 0.03 0.03 0.04 0.02 0.02 0.01 0.02 0.02 0.02 0.02 0.01 0.01 0.01 0.01 0.01 0.01 0.00 0.00 0.00 0.00 0.00 0.00 0.00 0.01 0.01 0.01 0.01 0.00 0.00 0.00 0.00 0.00 0.00 0.00 0.01 0.01 0.01 0.01 0.01 0.01 0.01 0.01 0.01 0.01 0.01 0.01 0.02 0.01 0.01 0.02 0.01 0.01 0.01 -0.00 -0.01 -0.01 -0.01 -0.00 -0.00 -0.00 -0.01 -0.11 -0.10 -0.08 -0.08 -0.11 -0.07 -0.04 -0.04 -0.02 -0.01 -0.01 -0.01 -0.01 -0.03 -0.03 -0.06 -0.06 -0.24 -0.24 -0.27
0.01 0.01 0.05 0.03 0.03 0.03 0.05 0.05 0.03 0.03 0.02 0.02 0.02 0.02 0.01 0.01 0.02 0.02 0.01 0.01 0.01 0.00 0.00 0.00 0.00 0.00 0.00 0.00 0.00 0.00 0.01 0.01 0.00 0.00 0.00 0.00 0.00 0.00 0.00 0.00 0.00 0.00 0.01 0.01 0.01 0.01 0.01 0.01 0.01 0.01 0.01 0.02 0.02 0.02 0.02 0.01 0.01 0.01 0.01 0.00 0.00 -0.00 -0.00 -0.00 -0.00 -0.00 -0.09 -0.11 -0.07 -0.07 -0.10 -0.07 -0.03 -0.03 -0.01 -0.01 -0.01 -0.01 -0.01 -0.03 -0.03 -0.05 -0.06 -0.11 -0.11 -0.25
0.04 0.05 0.06 0.06 0.06 0.05 0.05 0.04 0.03 0.03 0.02 0.02 0.03 0.03 0.02 0.02 0.02 0.02 0.02 0.01 0.01 0.01 0.01 0.01 0.01 0.00 0.01 0.01 0.01 0.01 0.01 0.01 0.01 0.01 0.00 0.00 0.00 0.00 0.00 0.00 0.00 0.00 0.00 0.01 0.01 0.01 0.01 0.01 0.01 0.01 0.01 0.02 0.02 0.02 0.02 0.02 0.02 0.01 0.01 0.01 0.01 0.00 0.00 0.00 0.00 -0.00 -0.00 -0.07 -0.10 -0.10 -0.07 -0.08 -0.04 -0.04 -0.01 -0.01 -0.02 -0.02 -0.02 -0.03 -0.03 -0.05 -0.08 -0.12 -0.12 -0.27
0.06 0.05 0.07 0.07 0.07 0.07 0.05 0.05 0.04 0.04 0.04 0.04 0.06 0.06 0.03 0.02 0.04 0.04 0.02 0.02 0.02 0.01 0.01 0.01 0.01 0.01 0.01 0.00 0.01 0.01 0.01 0.00 0.00 0.00 0.00 0.00 0.00 0.00 0.00 0.00 0.00 0.00 0.00 0.00 0.00 0.01 0.01 0.01 0.01 0.01 0.01 0.02 0.02 0.02 0.03 0.03 0.03 0.02 0.03 0.01 0.01 0.01 0.01 0.00 0.00 0.00 -0.01 -0.04 -0.10 -0.10 -0.07 -0.05 -0.02 -0.02 -0.01 -0.01 -0.01 -0.01 -0.02 -0.02 -0.02 -0.03 -0.05 -0.08 -0.08 -0.13
0.06 0.05 0.06 0.06 0.06 0.05 0.04 0.05 0.06 0.06 0.08 0.07 0.04 0.04 0.04 0.04 0.03 0.03 0.02 0.01 0.01 0.01 0.01 0.01 0.01 0.01 0.00 0.00 0.00 0.00 0.00 0.00 0.00 0.00 0.00 0.00 0.00 0.00 0.00 0.00 0.00 0.00 0.00 0.00 0.00 0.00 0.00 0.00 0.00 0.01 0.01 0.02 0.03 0.03 0.03 0.04 0.04 0.04 0.03 0.03 0.03 0.02 0.02 0.01 0.01 0.00 -0.00 -0.01 -0.03 -0.03 -0.08 -0.03 -0.01 -0.01 -0.00 -0.00 -0.01 -0.01 -0.01 -0.01 -0.01 -0.03 -0.04 -0.07 -0.07 -0.14
0.05 -0.03 0.01 0.03 0.03 0.03 0.07 0.09 0.09 0.09 0.08 0.05 0.04 0.04 0.03 0.04 0.02 0.02 0.02 0.01 0.01 0.01 0.01 0.01 0.01 0.01 0.00 0.00 0.00 0.00 0.00 0.00 0.00 0.00 0.00 0.00 0.00 0.00 0.00 0.00 0.00 0.00 0.00 0.00 0.00 0.00 0.00 0.00 0.00 0.00 0.01 0.01 0.03 0.03 0.04 0.04 0.04 0.04 0.03 0.03 0.03 0.02 0.02 0.01 0.01 0.00 -0.01 -0.01 -0.01 -0.01 -0.10 -0.08 0.00 0.00 0.00 0.00 -0.00 -0.00 -0.01 -0.01 -0.01 -0.01 -0.02 -0.03 -0.03 -0.09
-0.04 0.02 0.07 0.08 0.08 0.06 0.06 0.08 0.07 0.07 0.06 0.05 0.05 0.05 0.05 0.04 0.06 0.06 0.05 0.02 0.02 0.01 0.02 0.01 0.01 0.01 0.01 0.00 0.00 0.00 0.00 0.00 0.00 0.00 0.00 0.00 0.00 0.00 0.00 0.00 0.00 0.00 0.00 0.00 0.00 0.00 0.00 0.00 0.00 0.00 0.00 0.00 0.01 0.01 0.02 0.02 0.02 0.03 0.03 0.03 0.03 0.03 0.02 0.01 0.01 0.00 -0.01 -0.01 -0.01 -0.01 -0.07 -0.06 0.00 0.00 0.00 0.00 -0.00 -0.00 -0.00 -0.00 -0.00 -0.01 -0.02 -0.03 -0.03 -0.06
0.03 0.02 0.03 0.04 0.04 0.03 0.03 0.05 0.07 0.07 0.05 0.06 0.07 0.07 0.07 0.07 0.08 0.08 0.06 0.02 0.02 0.02 0.01 0.02 0.02 0.02 0.01 0.00 0.00 0.00 0.00 0.01 0.01 0.01 0.00 -0.00 0.00 0.00 0.00 0.00 0.00 0.00 -0.00 -0.00 -0.00 0.00 0.00 0.00 0.00 -0.00 -0.00 -0.00 0.00 0.00 0.01 0.01 0.01 0.03 0.03 0.04 0.04 0.03 0.02 0.02 0.02 0.01 0.01 -0.00 -0.00 -0.00 -0.00 -0.04 -0.03 -0.03 0.00 0.00 0.00 0.00 -0.00 -0.00 -0.00 -0.00 -0.01 -0.03 -0.03 -0.06
-0.02 0.03 0.03 0.03 0.03 0.03 0.04 0.06 0.05 0.05 0.06 0.07 0.07 0.07 0.08 0.08 0.05 0.05 0.03 0.01 0.01 0.02 0.02 0.00 0.00 0.02 0.00 0.01 0.01 0.01 0.00 0.01 0.00 0.00 0.00 -0.01 -0.00 -0.00 0.00 0.00 0.00 0.00 0.00 0.00 0.00 0.00 0.00 -0.00 -0.00 -0.00 -0.00 -0.00 -0.00 -0.00 -0.00 0.00 0.00 0.02 0.03 0.03 0.03 0.03 0.02 0.02 0.02 0.01 0.01 0.00 0.00 0.00 0.00 -0.02 -0.02 -0.02 0.00 0.00 0.00 0.00 0.00 0.00 0.00 -0.00 0.00 0.00 0.00 -0.01
-0.02 0.02 0.03 0.03 0.03 0.04 0.05 0.06 0.06 0.06 0.07 0.09 0.10 0.10 0.10 0.09 0.05 0.05 0.00 -0.00 -0.00 -0.00 -0.01 -0.01 -0.01 0.00 -0.01 -0.01 0.01 0.01 0.00 -0.01 0.00 0.00 -0.00 -0.01 -0.01 -0.01 -0.00 0.00 0.00 0.00 0.00 0.00 0.00 0.00 0.00 0.00 0.00 -0.00 -0.00 0.00 0.00 0.00 0.00 0.01 0.01 0.01 0.01 0.02 0.02 0.03 0.02 0.02 0.02 0.02 0.02 0.01 0.00 0.00 0.00 -0.01 -0.01 -0.01 0.00 0.00 0.00 0.00 0.00 0.00 0.00 0.00 0.00 0.00 0.00 -0.01
0.02 0.02 0.02 0.03 0.03 0.04 0.06 0.06 0.07 0.07 0.07 0.11 0.11 0.11 0.06 0.06 0.02 0.02 0.00 -0.01 -0.01 -0.02 -0.04 -0.01 -0.01 -0.02 -0.01 -0.02 0.00 0.00 0.00 -0.03 -0.02 -0.02 -0.01 0.00 0.00 0.00 0.00 0.00 0.00 0.00 0.00 0.00 0.00 0.00 0.00 0.00 0.00 0.00 0.00 0.01 0.01 0.01 0.01 0.01 0.01 0.01 0.02 0.02 0.02 0.02 0.02 0.02 0.02 0.02 0.02 0.02 0.01 0.01 0.01 0.00 0.00 0.00 0.00 0.00 0.00 0.00 0.00 0.00 0.00 0.00 0.00 0.00 0.00 -0.00
0.02 0.04 0.04 0.04 0.04 0.04 0.05 0.04 0.05 0.05 0.09 0.06 0.01 0.01 0.00 0.02 -0.03 -0.03 -0.01 -0.02 -0.02 -0.03 -0.04 -0.06 -0.06 -0.04 -0.03 -0.03 -0.00 -0.00 -0.01 -0.05 -0.02 -0.02 -0.00 0.01 0.01 0.01 0.00 0.01 0.01 0.01 0.01 0.00 0.00 0.00 0.00 0.00 0.00 0.00 0.00 0.01 0.01 0.01 0.01 0.02 0.02 0.03 0.02 0.03 0.03 0.02 0.02 0.02 0.02 0.02 0.02 0.02 0.01 0.01 0.01 0.00 0.00 0.00 0.00 0.00 0.00 0.00 0.00 0.00 0.00 0.00 0.00 0.01 0.01 0.00
0.04 0.07 0.05 0.04 0.04 0.04 0.02 0.03 0.05 0.05 0.07 0.03 -0.00 -0.00 -0.03 -0.01 -0.02 -0.02 -0.02 -0.04 -0.04 -0.03 -0.06 -0.06 -0.06 -0.04 -0.05 -0.05 -0.03 -0.03 -0.03 -0.02 -0.02 -0.02 0.01 0.03 0.01 0.01 0.00 0.01 0.01 0.01 0.01 0.01 0.01 0.00 0.00 0.01 0.01 0.00 0.00 0.02 0.02 0.02 0.02 0.03 0.03 0.04 0.04 0.04 0.04 0.03 0.03 0.02 0.02 0.02 0.02 0.02 0.02 0.02 0.01 0.01 0.00 0.00 0.00 0.00 0.00 0.00 0.00 0.00 0.00 0.01 0.01 0.01 0.01 0.01
0.14 0.04 0.04 0.05 0.05 0.01 -0.01 0.02 0.05 0.05 0.05 -0.03 -0.10 -0.10 -0.06 -0.03 -0.08 -0.08 -0.04 -0.07 -0.07 -0.06 -0.08 -0.05 -0.05 -0.05 -0.10 -0.09 -0.05 -0.05 -0.02 0.01 0.02 0.02 0.03 0.05 0.04 0.04 0.01 0.02 0.02 0.02 0.02 0.02 0.02 0.01 0.01 0.01 0.01 0.01 0.01 0.03 0.03 0.03 0.03 0.04 0.04 0.04 0.04 0.04 0.04 0.04 0.03 0.02 0.02 0.02 0.02 0.01 0.01 0.01 0.01 0.01 0.00 0.00 0.00 0.00 0.00 0.00 0.00 0.00 0.00 0.00 0.00 0.01 0.01 0.01
0.27 0.14 0.07 0.07 0.07 -0.01 -0.00 0.02 0.03 0.03 0.01 -0.09 -0.12 -0.12 -0.09 -0.10 -0.14 -0.14 -0.08 -0.09 -0.09 -0.27 -0.21 -0.16 -0.16 -0.12 0.00 0.00 0.01 0.01 0.02 0.02 0.02 0.02 0.04 0.08 0.05 0.05 0.03 0.03 0.03 0.02 0.02 0.03 0.03 0.02 0.01 0.02 0.02 0.02 0.02 0.03 0.04 0.04 0.03 0.04 0.04 0.04 0.05 0.05 0.05 0.04 0.03 0.02 0.02 0.02 0.02 0.01 0.01 0.01 0.01 0.01 0.00 0.00 0.00 0.00 0.00 0.00 0.00 0.00 0.00 0.00 0.00 0.01 0.01 0.01
0.33 0.15 0.05 0.02 0.02 -0.01 -0.10 -0.08 -0.04 -0.04 -0.04 -0.17 -0.15 -0.15 -0.14 -0.19 -0.38 -0.38 -0.35 -0.31 -0.31 -0.01 -0.01 -0.01 -0.01 -0.00 0.03 0.03 0.03 0.03 0.04 0.04 0.04 0.04 0.05 0.07 0.04 0.04 0.03 0.05 0.05 0.04 0.03 0.03 0.03 0.02 0.02 0.02 0.02 0.02 0.02 0.03 0.04 0.04 0.04 0.04 0.04 0.04 0.04 0.04 0.04 0.04 0.04 0.03 0.03 0.02 0.02 0.01 0.01 0.01 0.01 0.01 0.01 0.01 0.00 0.00 0.00 0.00 0.00 0.00 0.00 0.00 0.00 0.01 0.01 0.01
0.22 0.13 0.02 -0.04 -0.04 -0.07 -0.07 -0.10 -0.12 -0.12 -0.13 -0.14 -0.23 -0.23 -0.27 -0.36 0.01 0.01 -0.01 -0.01 -0.01 0.03 0.03 0.04 0.04 0.04 0.07 0.07 0.06 0.06 0.06 0.05 0.07 0.07 0.12 0.09 0.06 0.06 0.04 0.04 0.04 0.06 0.06 0.04 0.04 0.03 0.02 0.02 0.02 0.02 0.02 0.03 0.03 0.03 0.03 0.03 0.03 0.03 0.04 0.03 0.03 0.03 0.03 0.02 0.02 0.02 0.01 0.01 0.01 0.01 0.01 0.01 0.00 0.00 0.00 0.00 0.00 0.00 0.00 0.00 0.00 0.00 0.00 0.01 0.01 0.01
0.23 0.12 0.06 0.01 0.01 -0.01 0.01 -0.01 -0.03 -0.03 -0.08 0.05 0.06 0.06 0.07 0.07 0.09 0.09 0.07 0.05 0.05 0.07 0.08 0.11 0.11 0.10 0.07 0.07 0.06 0.06 0.06 0.05 0.07 0.07 0.09 0.07 0.05 0.05 0.04 0.05 0.05 0.06 0.06 0.03 0.03 0.02 0.02 0.02 0.02 0.02 0.02 0.02 0.02 0.02 0.02 0.02 0.02 0.03 0.03 0.02 0.02 0.03 0.02 0.02 0.02 0.01 0.01 0.01 0.01 0.01 0.01 0.01 0.00 0.00 0.00 0.00 0.00 0.00 0.00 0.00 0.00 0.00 0.00 0.00 0.00 0.01
0.66 0.48 0.21 0.07 0.07 0.03 0.04 0.03 0.05 0.05 0.05 0.07 0.08 0.08 0.10 0.11 0.10 0.10 0.14 0.10 0.10 0.07 0.11 0.13 0.13 0.10 0.05 0.08 0.07 0.07 0.05 0.05 0.06 0.06 0.07 0.07 0.05 0.05 0.04 0.04 0.04 0.05 0.04 0.03 0.03 0.02 0.02 0.01 0.01 0.01 0.02 0.01 0.01 0.01 0.02 0.01 0.01 0.02 0.02 0.02 0.02 0.01 0.02 0.01 0.01 0.01 0.01 0.01 0.01 0.01 0.00 0.00 0.00 0.00 0.00 0.00 0.00 0.00 0.00 0.00 0.00 0.00 0.00 0.01 0.01 0.01
0.46 0.75 0.48 0.22 0.22 0.25 0.14 0.07 0.04 0.04 0.06 0.10 0.08 0.08 0.06 0.07 0.20 0.20 0.13 0.08 0.08 0.10 0.09 0.07 0.07 0.06 0.08 0.07 0.06 0.06 0.03 0.05 0.05 0.05 0.05 0.06 0.09 0.09 0.05 0.03 0.03 0.03 0.03 0.02 0.02 0.02 0.01 0.01 0.01 0.01 0.01 0.00 0.01 0.01 0.01 0.01 0.01 0.01 0.01 0.01 0.01 0.01 0.01 0.01 0.01 0.01 0.01 0.01 0.00 0.00 0.00 0.00 0.00 0.00 0.00 0.00 -0.00 -0.00 0.00 0.00 0.00 0.00 0.00 0.01 0.01 0.01
0.16 0.53 0.87 0.52 0.52 0.60 0.31 0.20 0.12 0.12 0.09 0.19 0.17 0.17 0.17 0.05 0.06 0.06 0.05 0.08 0.08 0.12 0.07 0.03 0.03 0.04 0.03 0.04 0.04 0.04 0.03 0.04 0.05 0.05 0.06 0.09 0.08 0.08 0.04 0.03 0.03 0.03 0.02 0.02 0.02 0.01 0.01 0.01 0.01 0.00 0.00 0.00 0.00 0.00 0.00 0.00 0.00 0.00 0.01 0.01 0.01 0.01 0.02 0.01 0.01 0.01 0.01 0.00 0.00 0.00 0.00 0.00 0.00 0.00 0.00 -0.00 -0.00 -0.00 0.00 0.00 0.00 0.00 0.00 0.00 0.00 0.00
0.04 0.15 0.53 0.94 0.94 0.93 0.66 0.36 0.29 0.29 0.22 0.25 0.25 0.25 0.28 0.27 0.09 0.09 0.05 0.07 0.07 0.08 0.06 0.06 0.06 0.04 0.04 0.03 0.03 0.03 0.04 0.04 0.05 0.05 0.06 0.10 0.05 0.05 0.03 0.03 0.03 0.02 0.02 0.02 0.02 0.02 0.01 0.00 0.00 0.00 0.00 0.00 0.00 0.00 0.00 0.00 0.00 0.00 0.00 0.01 0.01 0.01 0.01 0.01 0.01 0.01 0.01 0.00 0.00 0.00 0.00 0.00 0.00 0.00 0.00 -0.00 -0.00 -0.00 -0.00 0.00 0.00 0.00 0.00 0.00 0.00 0.00
0.04 0.04 0.16 0.45 0.45 0.38 0.84 0.62 0.34 0.34 0.36 0.30 0.37 0.37 0.50 0.40 0.17 0.17 0.12 0.10 0.10 0.06 0.05 0.06 0.06 0.06 0.05 0.08 0.12 0.12 0.07 0.04 0.03 0.03 0.05 0.06 0.06 0.06 0.03 0.02 0.02 0.02 0.02 -0.03 -0.03 0.02 0.01 0.00 0.00 0.00 0.00 0.00 0.00 0.00 0.00 0.00 0.00 0.00 0.00 0.00 0.00 0.00 0.01 0.01 0.01 0.01 0.00 0.00 0.00 0.00 0.00 0.00 0.00 0.00 0.00 0.00 0.00 0.00 -0.00 -0.00 -0.00 0.00 0.00 0.00 0.00 0.00
0.06 0.05 0.04 0.05 0.05 0.07 0.10 0.14 0.25 0.25 0.22 0.42 0.53 0.53 0.48 0.55 0.59 0.59 0.32 0.22 0.22 0.06 0.06 0.08 0.08 0.07 0.06 0.03 0.02 0.02 0.00 0.01 0.02 0.02 0.03 0.00 -0.00 -0.00 0.00 -0.00 -0.00 -0.01 0.00 -0.01 -0.01 -0.07 -0.01 -0.01 -0.01 0.00 0.00 0.00 0.00 0.00 0.00 0.00 0.00 0.00 0.00 0.00 0.00 0.00 0.00 -0.00 -0.00 -0.00 0.00 0.00 0.00 0.00 -0.00 -0.00 -0.00 -0.00 -0.00 0.00 0.00 0.00 0.00 0.00 0.00 -0.00 -0.00 -0.00 -0.00 0.00
0.08 0.07 0.05 0.06 0.06 0.09 0.09 0.10 0.14 0.14 0.13 0.19 0.30 0.30 0.44 0.54 0.64 0.64 0.36 0.18 0.18 0.13 0.08 0.04 0.04 0.06 0.04 0.05 0.04 0.04 0.02 0.01 0.01 0.01 0.01 -0.01 -0.05 -0.05 -0.02 -0.01 -0.01 -0.00 -0.00 -0.01 -0.01 -0.03 -0.02 -0.00 -0.00 0.00 0.00 0.00 0.00 0.00 0.00 0.00 0.00 0.00 0.00 -0.00 -0.00 -0.00 -0.00 0.00 0.00 0.00 -0.00 -0.00 -0.00 -0.00 -0.00 -0.00 -0.00 -0.00 -0.00 -0.00 -0.00 -0.00 -0.00 -0.00 -0.00 0.00 -0.00 -0.00 -0.00 0.00
0.11 0.10 0.09 0.09 0.09 0.09 0.10 0.10 0.11 0.11 0.09 0.10 0.15 0.15 0.23 0.22 0.59 0.59 0.48 0.20 0.20 0.10 0.05 0.00 0.00 0.01 -0.02 0.01 0.02 0.02 0.01 0.01 0.01 0.01 0.00 -0.04 -0.06 -0.06 -0.03 -0.02 -0.02 -0.01 -0.01 -0.00 -0.00 0.00 -0.01 -0.00 -0.00 -0.00 0.00 0.00 0.00 0.00 0.00 0.00 0.00 0.00 0.00 0.00 0.00 0.00 0.00 0.00 0.00 -0.00 -0.00 -0.00 -0.00 -0.00 -0.00 -0.00 -0.00 -0.00 -0.00 -0.00 -0.00 -0.00 -0.00 0.00 0.00 0.00 -0.00 -0.00 -0.00 -0.00
0.13 0.11 0.10 0.11 0.11 0.08 0.07 0.06 0.08 0.08 0.05 0.05 0.07 0.07 0.11 0.09 0.30 0.30 0.51 0.27 0.27 0.12 0.03 -0.00 -0.00 -0.03 -0.07 -0.05 -0.01 -0.01 -0.00 0.01 0.00 0.00 -0.01 -0.07 -0.06 -0.06 -0.04 -0.02 -0.02 -0.01 -0.01 -0.01 -0.01 -0.01 -0.00 -0.00 -0.00 -0.00 0.00 0.00 0.00 0.00 0.00 0.00 0.00 0.00 0.00 0.00 0.00 0.00 0.00 -0.00 -0.00 -0.00 -0.00 -0.01 -0.00 -0.00 -0.00 -0.00 -0.00 -0.00 -0.00 -0.00 -0.00 -0.00 -0.00 -0.00 -0.00 -0.00 -0.00 -0.00 -0.00 -0.01
0.08 0.09 0.09 0.08 0.08 0.05 0.05 0.04 0.04 0.04 0.03 0.03 0.02 0.02 0.03 0.02 0.04 0.04 0.08 0.34 0.34 0.24 0.16 0.04 0.04 -0.01 -0.04 -0.06 -0.08 -0.08 -0.01 -0.00 -0.00 -0.00 -0.04 -0.08 -0.12 -0.12 -0.06 -0.02 -0.02 -0.01 -0.02 -0.02 -0.02 -0.02 -0.02 -0.00 -0.00 -0.00 -0.00 -0.00 0.01 0.01 0.00 0.00 0.00 0.00 0.00 0.00 0.00 0.00 0.00 0.00 0.00 -0.00 -0.00 -0.01 -0.01 -0.01 -0.01 -0.00 -0.00 -0.00 -0.00 -0.00 -0.00 -0.00 -0.00 -0.00 -0.00 -0.00 -0.00 -0.01 -0.01 -0.01
0.06 0.05 0.05 0.05 0.05 0.02 0.02 0.02 0.02 0.02 0.02 0.02 0.02 0.02 0.01 0.00 0.02 0.02 0.04 0.11 0.11 0.14 0.15 0.07 0.07 0.00 -0.01 -0.04 -0.07 -0.07 -0.04 -0.02 -0.00 -0.00 -0.02 -0.06 -0.11 -0.11 -0.14 -0.05 -0.05 -0.02 -0.03 -0.04 -0.04 -0.03 -0.02 -0.02 -0.02 -0.00 -0.00 0.01 0.01 0.01 0.00 0.00 0.00 0.00 0.00 0.00 0.00 0.00 0.00 -0.00 -0.00 -0.00 -0.01 -0.01 -0.01 -0.01 -0.01 -0.01 -0.00 -0.00 -0.00 -0.00 -0.00 -0.00 -0.00 -0.00 -0.00 -0.00 -0.00 -0.01 -0.01 -0.01
0.05 0.04 0.03 0.03 0.03 0.03 0.02 0.01 0.01 0.01 0.02 0.02 0.02 0.02 0.01 -0.01 -0.00 -0.00 0.02 0.05 0.05 0.07 0.15 0.09 0.09 0.03 0.02 -0.00 -0.04 -0.04 0.01 0.02 0.01 0.01 0.01 -0.09 -0.14 -0.14 -0.12 -0.06 -0.06 -0.03 -0.03 -0.03 -0.03 -0.04 -0.03 -0.01 -0.01 0.01 0.01 0.00 0.00 0.00 0.00 0.00 0.00 0.00 0.00 0.00 0.00 -0.00 0.00 -0.00 -0.00 -0.00 -0.01 -0.01 -0.01 -0.01 -0.01 -0.01 -0.01 -0.01 -0.01 -0.00 -0.00 -0.00 -0.01 -0.01 -0.01 -0.00 -0.01 -0.01 -0.01 -0.02
0.08 0.07 0.06 0.05 0.05 0.05 0.04 0.02 0.02 0.02 0.01 0.01 0.01 0.01 0.01 -0.02 -0.04 -0.04 -0.00 0.03 0.03 0.03 0.09 0.13 0.13 0.05 0.03 0.03 0.01 0.01 0.01 0.01 0.00 0.00 -0.02 -0.10 -0.15 -0.15 -0.12 -0.07 -0.07 -0.03 -0.02 -0.03 -0.03 -0.04 -0.03 -0.01 -0.01 -0.00 -0.00 -0.00 -0.00 -0.00 -0.00 0.00 0.00 -0.00 0.00 0.00 0.00 0.00 -0.00 -0.00 -0.00 -0.01 -0.01 -0.01 -0.02 -0.02 -0.01 -0.01 -0.01 -0.01 -0.01 -0.01 -0.01 -0.01 -0.01 -0.01 -0.01 -0.01 -0.02 -0.02 -0.02 -0.02
0.05 0.06 0.05 0.03 0.03 0.03 0.02 0.02 0.01 0.01 0.00 0.00 -0.00 -0.00 -0.00 -0.00 -0.01 -0.01 -0.04 -0.05 -0.05 -0.04 -0.02 0.03 0.03 0.09 0.09 0.06 0.04 0.04 0.04 0.04 0.03 0.03 0.02 0.01 -0.06 -0.06 -0.13 -0.09 -0.09 -0.06 -0.04 -0.03 -0.03 -0.03 -0.02 -0.01 -0.01 0.00 -0.01 -0.01 -0.01 -0.01 -0.00 -0.00 -0.00 -0.00 0.00 0.00 0.00 0.00 0.00 -0.00 -0.00 -0.01 -0.01 -0.01 -0.02 -0.02 -0.02 -0.02 -0.02 -0.02 -0.01 -0.01 -0.01 -0.01 -0.01 -0.01 -0.01 -0.01 -0.02 -0.03 -0.03 -0.04
0.05 0.04 0.03 0.01 0.01 0.02 0.02 0.01 0.01 0.01 0.00 -0.00 0.00 0.00 0.00 0.01 0.00 0.00 -0.01 -0.02 -0.02 -0.01 -0.02 -0.00 -0.00 0.07 0.09 0.08 0.05 0.05 0.03 0.02 0.03 0.03 0.03 0.01 -0.01 -0.01 -0.09 -0.07 -0.07 -0.06 -0.04 -0.00 -0.00 -0.01 -0.01 -0.00 -0.00 0.00 -0.00 -0.01 -0.00 -0.00 -0.00 -0.00 -0.00 -0.00 0.00 0.01 0.01 -0.00 -0.00 -0.01 -0.01 -0.01 -0.01 -0.01 -0.01 -0.01 -0.01 -0.02 -0.02 -0.02 -0.02 -0.02 -0.01 -0.01 -0.01 -0.01 -0.01 -0.02 -0.03 -0.03 -0.03 -0.04
0.03 0.03 0.01 0.01 0.01 0.01 0.01 0.01 0.01 0.01 0.01 0.00 0.00 0.00 0.01 0.00 0.00 0.00 0.01 -0.00 -0.00 0.00 0.00 0.01 0.01 0.07 0.09 0.08 0.05 0.05 0.04 0.02 0.01 0.01 0.02 -0.00 -0.01 -0.01 -0.06 -0.05 -0.05 -0.05 -0.04 -0.00 -0.00 0.01 0.00 0.00 0.00 -0.00 -0.00 -0.01 -0.01 -0.01 0.00 -0.00 -0.00 -0.01 -0.01 -0.00 -0.00 -0.00 -0.00 -0.00 -0.00 -0.00 -0.01 -0.01 -0.01 -0.01 -0.02 -0.02 -0.02 -0.02 -0.02 -0.02 -0.02 -0.02 -0.01 -0.02 -0.02 -0.02 -0.03 -0.03 -0.03 -0.03
0.02 0.02 0.01 0.00 0.00 0.00 0.01 0.02 0.02 0.02 0.02 0.01 0.00 0.00 0.00 0.00 0.00 0.00 0.00 0.01 0.01 0.01 0.01 0.01 0.01 0.02 0.04 0.06 0.06 0.06 0.04 0.04 0.02 0.02 0.02 0.01 -0.01 -0.01 -0.02 -0.02 -0.02 -0.03 -0.05 -0.02 -0.02 0.02 0.01 -0.00 -0.00 -0.01 -0.00 -0.01 -0.01 -0.01 0.01 -0.00 -0.00 -0.01 -0.00 -0.01 -0.01 -0.01 0.01 -0.00 -0.00 -0.00 -0.01 -0.01 -0.01 -0.01 -0.02 -0.03 -0.02 -0.02 -0.02 -0.02 -0.03 -0.03 -0.03 -0.02 -0.02 -0.02 -0.02 -0.02 -0.02 -0.03
0.04 0.02 0.01 0.01 0.01 0.00 0.00 0.01 0.02 0.02 0.02 0.02 0.02 0.02 0.01 0.01 0.01 0.01 0.01 0.01 0.01 0.02 0.01 0.02 0.02 0.02 0.05 0.04 0.04 0.04 0.01 0.02 0.02 0.02 0.02 0.01 -0.02 -0.02 -0.03 -0.04 -0.04 -0.04 -0.06 -0.03 -0.03 -0.01 -0.00 -0.00 -0.00 -0.01 -0.01 -0.01 0.01 0.01 0.01 -0.01 -0.01 -0.01 -0.01 -0.01 -0.01 -0.01 -0.01 0.01 0.01 -0.00 -0.01 -0.01 -0.01 -0.01 -0.01 -0.02 -0.02 -0.02 -0.02 -0.03 -0.04 -0.04 -0.04 -0.04 -0.04 -0.03 -0.02 -0.02 -0.02 -0.03
0.04 0.02 0.01 0.03 0.03 0.02 0.02 0.01 0.01 0.01 0.02 0.02 0.02 0.02 0.01 0.02 0.03 0.03 0.02 0.02 0.02 0.02 0.03 0.03 0.03 0.04 0.07 0.03 0.02 0.02 0.00 0.01 0.02 0.02 0.03 0.04 -0.01 -0.01 -0.03 -0.02 -0.02 -0.02 -0.05 -0.03 -0.03 -0.05 -0.01 0.00 0.00 -0.03 -0.03 -0.02 -0.01 -0.01 0.02 0.01 0.01 -0.03 -0.03 -0.02 -0.02 -0.02 -0.01 -0.00 -0.00 -0.01 -0.02 -0.01 -0.01 -0.01 -0.01 -0.02 -0.04 -0.04 -0.03 -0.04 -0.04 -0.04 -0.05 -0.05 -0.05 -0.05 -0.04 -0.04 -0.04 -0.03
0.07 0.05 0.04 0.05 0.05 0.05 0.02 0.02 0.02 0.02 0.02 0.03 0.03 0.03 0.02 0.03 0.03 0.03 0.03 0.02 0.02 0.04 0.03 0.05 0.05 0.10 0.04 0.00 -0.00 -0.00 -0.01 -0.01 0.00 0.00 0.00 0.00 0.04 0.04 0.04 0.03 0.03 -0.01 -0.03 -0.05 -0.05 -0.05 -0.06 -0.06 -0.06 -0.07 -0.04 -0.01 0.02 0.02 -0.01 -0.02 -0.02 -0.06 -0.05 -0.03 -0.03 -0.02 -0.01 -0.01 -0.01 -0.01 -0.02 -0.02 -0.01 -0.01 -0.01 -0.02 -0.04 -0.04 -0.04 -0.04 -0.04 -0.04 -0.05 -0.05 -0.05 -0.05 -0.04 -0.04 -0.04 -0.03
0.08 0.08 0.06 0.05 0.05 0.05 0.03 0.02 0.02 0.02 0.03 0.03 0.04 0.04 0.03 0.04 0.04 0.04 0.04 0.03 0.03 0.05 0.05 0.06 0.06 0.09 0.04 0.01 -0.00 -0.00 -0.02 -0.04 -0.04 -0.04 -0.03 -0.03 0.01 0.01 0.05 0.04 0.04 -0.00 -0.02 -0.04 -0.04 -0.03 -0.05 -0.06 -0.06 -0.07 -0.00 0.03 0.01 0.01 -0.04 -0.05 -0.05 -0.08 -0.06 -0.06 -0.06 -0.05 -0.03 -0.01 -0.01 -0.01 -0.01 -0.02 -0.02 -0.02 -0.02 -0.03 -0.04 -0.04 -0.04 -0.04 -0.05 -0.05 -0.06 -0.05 -0.05 -0.04 -0.04 -0.04 -0.04 -0.04
0.08 0.08 0.08 0.09 0.09 0.07 0.05 0.03 0.04 0.04 0.03 0.03 0.03 0.03 0.03 0.04 0.04 0.04 0.05 0.05 0.05 0.06 0.08 0.11 0.11 0.06 0.03 0.00 -0.01 -0.01 -0.05 -0.06 -0.07 -0.07 -0.06 -0.04 -0.02 -0.02 0.03 0.02 0.02 0.02 -0.01 -0.02 -0.02 -0.03 -0.04 -0.06 -0.06 -0.05 -0.05 -0.00 0.01 0.01 -0.04 -0.08 -0.08 -0.10 -0.10 -0.07 -0.07 -0.06 -0.04 -0.02 -0.02 -0.01 -0.01 -0.02 -0.02 -0.02 -0.02 -0.04 -0.06 -0.06 -0.06 -0.07 -0.06 -0.06 -0.05 -0.06 -0.06 -0.06 -0.04 -0.04 -0.04 -0.04
0.11 0.11 0.10 0.11 0.11 0.12 0.08 0.06 0.04 0.04 0.03 0.03 0.02 0.02 0.03 0.03 0.04 0.04 0.05 0.05 0.05 0.08 0.10 0.09 0.09 0.03 0.01 -0.01 -0.02 -0.02 -0.06 -0.07 -0.07 -0.07 -0.07 -0.05 -0.04 -0.04 -0.04 -0.03 -0.03 -0.01 0.03 0.02 0.02 0.03 0.00 -0.02 -0.02 -0.02 -0.04 -0.03 -0.02 -0.02 -0.08 -0.13 -0.13 -0.14 -0.13 -0.10 -0.10 -0.08 -0.06 -0.03 -0.03 -0.02 -0.02 -0.02 -0.02 -0.02 -0.02 -0.03 -0.04 -0.04 -0.05 -0.07 -0.04 -0.04 -0.04 -0.07 -0.07 -0.06 -0.04 -0.03 -0.03 -0.03
0.12 0.13 0.11 0.12 0.12 0.11 0.08 0.07 0.05 0.05 0.04 0.03 0.03 0.03 0.04 0.05 0.04 0.04 0.03 0.05 0.05 0.06 0.05 0.04 0.04 0.01 0.01 -0.00 -0.02 -0.02 -0.05 -0.06 -0.07 -0.07 -0.08 -0.07 -0.06 -0.06 -0.05 -0.05 -0.05 -0.01 0.04 0.05 0.05 0.08 0.06 0.01 0.01 0.00 -0.03 -0.06 -0.06 -0.06 -0.10 -0.16 -0.16 -0.16 -0.16 -0.17 -0.17 -0.14 -0.08 -0.07 -0.07 -0.05 -0.03 -0.03 -0.03 -0.03 -0.03 -0.04 -0.06 -0.06 -0.06 -0.05 -0.03 -0.03 -0.05 -0.05 -0.05 -0.07 -0.07 -0.04 -0.04 -0.03
0.11 0.11 0.11 0.11 0.11 0.10 0.07 0.06 0.06 0.06 0.04 0.05 0.05 0.05 0.06 0.07 0.07 0.07 0.06 0.08 0.08 0.06 0.04 0.02 0.02 0.00 -0.00 -0.01 -0.03 -0.03 -0.06 -0.07 -0.07 -0.07 -0.08 -0.08 -0.08 -0.08 -0.06 -0.06 -0.06 -0.01 0.06 0.08 0.08 0.10 0.12 0.07 0.07 0.03 0.03 -0.03 -0.10 -0.10 -0.10 -0.12 -0.12 -0.18 -0.14 -0.17 -0.17 -0.16 -0.09 -0.07 -0.07 -0.06 -0.04 -0.03 -0.04 -0.04 -0.05 -0.05 -0.07 -0.07 -0.08 -0.05 -0.02 -0.02 -0.04 -0.05 -0.05 -0.07 -0.07 -0.05 -0.05 -0.03